Weather in Uagadugu

Burkina Faso     12°21′28″N   1°31′12″W
temp.,
°C
wind,
m/s
gust,
m/s
humid.,
%
clouds,
%
prec.,
mm/h
press.,
hPa
HPBL,
m
8 december, wed
wed800:00+25ene361714 0.0 1013123
03:00+23ene361630 0.0 1012114
06:00+22ene361682 0.0 1012116
09:00+28e69126 0.0 1014499
12:00+34e5684 0.0 10121407
15:00+35ene4585 0.0 10092022
18:00+30ne461056 0.0 1010180
21:00+27ne47120 0.0 1013125
9 december, thu
thu900:00+24ne48145 0.0 1013155
03:00+23ne49155 0.0 1011167
06:00+21ene49150 0.0 1012167
09:00+28ene6101192 0.0 1013473
12:00+34ene668100 0.0 10101355
15:00+35ene448100 0.0 10072011
18:00+30ene36115 0.0 1008157
21:00+26ne4712100 0.0 1011114
10 december, fri
fri1000:00+24ne481291 0.0 1011151
03:00+22ne361285 0.0 1009125
06:00+21ne471235 0.0 1010123
09:00+27ene58825 0.0 1012424
12:00+33ene55612 0.0 10091264
15:00+35ene3375 0.0 10062164
18:00+29ene34103 0.0 100871
21:00+27ne4611100 0.0 1010109
11 december, sat
sat1100:00+24ne471350 0.0 1010127
03:00+23ne46135 0.0 1009111
06:00+21ene36155 0.0 100999
09:00+28ene57105 0.0 1011373
12:00+34e55823 0.0 10081369
15:00+36e32887 0.0 10062520
18:00+30ene221239 0.0 100731
21:00+28ne351368 0.0 100981
12 december, sun
sun1200:00+25ne461693 0.0 1009104
03:00+24ne471792 0.0 1008115
06:00+23ene36185 0.0 1010116
09:00+29ene58135 0.0 1011433
12:00+35e551031 0.0 10091557
15:00+36e3390 0.0 10062590
18:00+31ne34120 0.0 100870
21:00+28ne35145 0.0 101081